Location: Newark
(59.4564°N, 26.6917°E)
Time: 09:06:53
(UTC+00:00)

SR - Pass Details

Date: 24 November 2019
Orbit: 573 x 882 km, 66.7° (Epoch: 05 December)

Event Time Altitude Azimuth Distance (km) Brightness Sun altitude
Rises 21:40:21 0° 309° (NW) 3,493 ? -51.0°
Enters shadow 21:40:35 - 308° (NW) 3,423 ? -51.0°
Reaches altitude 10° 21:44:06 10° 286° (WNW) 2,548 - -51.1°
Maximum altitude 21:47:01 14° 257° (WSW) 2,249 - -51.1°
Drops below altitude 10° 21:49:54 10° 227° (SW) 2,507 - -51.1°
Sets 21:53:33 0° 203° (SSW) 3,397 - -51.2°
